TimeCET,TemperatureF,Dew PointF,Humidity,Sea Level PressureIn,VisibilityMPH,Wind Direction,Wind SpeedMPH,Gust SpeedMPH,PrecipitationIn,Events,Conditions,WindDirDegrees,DateUTC
12:00 AM,50.0,50.0,100,29.77,6.2,SW,4.6,-,N/A,,Mostly Cloudy,230,2012-11-01 23:00:00
12:30 AM,50.0,50.0,100,29.77,6.2,Variable,1.2,-,N/A,,Mostly Cloudy,0,2012-11-01 23:30:00
1:00 AM,50.0,50.0,100,29.77,6.2,SW,5.8,-,N/A,,Scattered Clouds,230,2012-11-02 00:00:00
1:30 AM,50.0,50.0,100,29.77,6.2,SW,5.8,-,N/A,,Scattered Clouds,220,2012-11-02 00:30:00
2:00 AM,50.0,50.0,100,29.77,6.2,SW,6.9,-,N/A,,Scattered Clouds,220,2012-11-02 01:00:00
2:30 AM,50.0,50.0,100,29.77,6.2,SSW,6.9,-,N/A,,Scattered Clouds,210,2012-11-02 01:30:00
3:00 AM,50.0,50.0,100,29.77,6.2,SSW,6.9,-,N/A,,Scattered Clouds,200,2012-11-02 02:00:00
3:30 AM,51.8,50.0,94,29.77,6.2,SSW,6.9,-,N/A,,Scattered Clouds,210,2012-11-02 02:30:00
4:00 AM,51.8,50.0,94,29.77,6.2,SSW,10.4,-,N/A,,Scattered Clouds,200,2012-11-02 03:00:00
4:30 AM,51.8,51.8,100,29.74,6.2,SSW,8.1,-,N/A,,Scattered Clouds,210,2012-11-02 03:30:00
5:00 AM,51.8,51.8,100,29.74,6.2,SSW,13.8,-,N/A,,Scattered Clouds,210,2012-11-02 04:00:00
5:30 AM,51.8,51.8,100,29.74,6.2,SW,12.7,-,N/A,,Scattered Clouds,220,2012-11-02 04:30:00
6:00 AM,53.6,51.8,94,29.74,6.2,SW,10.4,-,N/A,,Scattered Clouds,220,2012-11-02 05:00:00
6:30 AM,53.6,53.6,100,29.74,6.2,SW,12.7,-,N/A,,Mostly Cloudy,220,2012-11-02 05:30:00
7:00 AM,53.6,53.6,100,29.74,4.3,SW,12.7,31.1,N/A,Rain,Light Rain,220,2012-11-02 06:00:00
7:30 AM,53.6,53.6,100,29.74,4.3,SW,13.8,28.8,N/A,Rain,Light Rain,230,2012-11-02 06:30:00
8:00 AM,53.6,53.6,100,29.74,6.2,SW,13.8,-,N/A,,Mostly Cloudy,220,2012-11-02 07:00:00
8:30 AM,53.6,53.6,100,29.77,6.2,SW,12.7,24.2,N/A,,Mostly Cloudy,220,2012-11-02 07:30:00
9:00 AM,53.6,53.6,100,29.77,6.2,SW,13.8,-,N/A,,Mostly Cloudy,220,2012-11-02 08:00:00
9:30 AM,53.6,53.6,100,29.77,6.2,SW,16.1,27.6,N/A,,Mostly Cloudy,220,2012-11-02 08:30:00
10:00 AM,53.6,53.6,100,29.77,6.2,SW,16.1,27.6,N/A,,Mostly Cloudy,220,2012-11-02 09:00:00
10:30 AM,55.4,53.6,94,29.80,6.2,SW,13.8,-,N/A,,Mostly Cloudy,230,2012-11-02 09:30:00
11:00 AM,57.2,53.6,88,29.80,6.2,SW,16.1,27.6,N/A,,Mostly Cloudy,220,2012-11-02 10:00:00
11:30 AM,59.0,55.4,88,29.80,6.2,SW,17.3,-,N/A,,Mostly Cloudy,230,2012-11-02 10:30:00
12:00 PM,59.0,53.6,82,29.80,6.2,SW,15.0,26.5,N/A,,Mostly Cloudy,230,2012-11-02 11:00:00
12:30 PM,57.2,50.0,77,29.80,6.2,SW,16.1,29.9,N/A,,Mostly Cloudy,220,2012-11-02 11:30:00
1:00 PM,55.4,53.6,94,29.80,1.9,Variable,10.4,23.0,N/A,Rain,Rain,0,2012-11-02 12:00:00
1:30 PM,55.4,55.4,100,29.80,5.0,WSW,12.7,24.2,N/A,Rain,Light Rain,240,2012-11-02 12:30:00
2:00 PM,55.4,55.4,100,29.77,3.1,SW,13.8,25.3,N/A,Rain,Light Rain,230,2012-11-02 13:00:00
2:30 PM,57.2,55.4,94,29.77,5.0,SW,15.0,28.8,N/A,Rain,Light Rain,230,2012-11-02 13:30:00
3:00 PM,55.4,55.4,100,29.77,5.6,SW,11.5,23.0,N/A,Rain,Light Rain,230,2012-11-02 14:00:00
3:30 PM,55.4,55.4,100,29.77,5.6,SW,13.8,-,N/A,Rain,Light Rain,230,2012-11-02 14:30:00
4:00 PM,57.2,55.4,94,29.77,5.6,SW,13.8,27.6,N/A,Rain,Light Rain,220,2012-11-02 15:00:00
4:30 PM,57.2,55.4,94,29.77,5.6,SW,12.7,-,N/A,Rain,Light Rain,220,2012-11-02 15:30:00
5:00 PM,57.2,55.4,94,29.77,6.2,SW,15.0,27.6,N/A,,Mostly Cloudy,220,2012-11-02 16:00:00
5:30 PM,57.2,55.4,94,29.77,6.2,SW,16.1,-,N/A,,Mostly Cloudy,220,2012-11-02 16:30:00
6:00 PM,57.2,55.4,94,29.77,6.2,SW,15.0,26.5,N/A,,Mostly Cloudy,230,2012-11-02 17:00:00
6:30 PM,57.2,55.4,94,29.77,6.2,SW,13.8,26.5,N/A,,Mostly Cloudy,230,2012-11-02 17:30:00
7:00 PM,57.2,55.4,94,29.77,6.2,SW,12.7,24.2,N/A,,Mostly Cloudy,230,2012-11-02 18:00:00
7:30 PM,57.2,55.4,94,29.77,6.2,SW,9.2,-,N/A,,Scattered Clouds,230,2012-11-02 18:30:00
8:00 PM,55.4,55.4,100,29.77,6.2,SW,13.8,-,N/A,,Mostly Cloudy,220,2012-11-02 19:00:00
8:30 PM,55.4,55.4,100,29.77,6.2,SW,10.4,23.0,N/A,,Mostly Cloudy,230,2012-11-02 19:30:00
9:00 PM,57.2,55.4,94,29.77,6.2,SW,11.5,-,N/A,,Mostly Cloudy,230,2012-11-02 20:00:00
9:30 PM,55.4,55.4,100,29.77,6.2,SW,9.2,23.0,N/A,,Mostly Cloudy,220,2012-11-02 20:30:00
10:00 PM,55.4,55.4,100,29.77,6.2,SW,12.7,-,N/A,,Scattered Clouds,220,2012-11-02 21:00:00
10:30 PM,55.4,55.4,100,29.77,6.2,SW,10.4,-,N/A,,Scattered Clouds,220,2012-11-02 21:30:00
11:00 PM,55.4,55.4,100,29.74,6.2,SSW,11.5,-,N/A,Rain,Light Rain,210,2012-11-02 22:00:00
11:30 PM,55.4,55.4,100,29.74,6.2,SSW,10.4,-,N/A,,Scattered Clouds,200,2012-11-02 22:30:00